Theta_e
341 339 338 336 339 343 342 346 346 344 342 340 340 341 342 341 338 338 336 334 332 327
336 338 339 338 338 341 340 343 346 345 341 341 342 342 341 338 336 334 334 334 333 331
326 329 334 337 336 337 337 337 338 340 343 344 345 344 341 337 337 336 334 334 333 332
324 328 328 328 332 335 336 338 337 337 339 340 341 340 338 339 339 338 336 335 334 331
322 323 321 322 325 330 332 332 336 335 333 336 340 338 338 337 338 334 333 331 331 329
313 317 319 319 319 322 325 330 330 334 334 335 336 335 335 336 334 332 329 330 329 329
312 314 316 319 317 319 320 323 330 330 333 332 333 334 335 335 333 332 333 332 329 329
311 314 314 318 316 317 318 320 322 325 330 332 331 334 331 329 330 332 329 330 329 329
310 313 314 314 316 315 318 318 321 320 323 325 329 317 315 320 327 328 327 325 327 328
309 309 310 313 316 314 315 315 317 318 319 319 322 315 310 312 325 326 326 327 326 327
309 309 309 311 311 313 313 315 314 314 317 317 322 310 310 307 320 322 323 326 327 326
307 307 309 308 308 311 312 312 313 315 314 315 317 307 302 306 318 322 322 325 325 327
307 306 306 307 308 309 312 312 314 315 313 313 313 303 302 311 319 316 318 317 321 315
305 304 305 304 305 306 309 311 310 311 313 314 314 308 301 303 313 313 314 313 314 316
Wind_Speed
7 6 5 5 4 3 3 3 8 10 8 7 7 6 6 3 4 5 6 7 4 2
5 5 5 6 5 5 5 5 6 10 9 8 7 7 6 4 4 3 2 3 3 2
6 6 6 5 5 5 5 6 6 5 5 5 5 6 6 4 4 4 3 3 5 4
5 5 6 6 6 5 5 7 6 5 4 2 2 3 4 5 5 4 5 4 4 7
7 5 5 6 7 7 4 3 4 3 4 5 4 5 4 4 3 4 5 7 6 7
7 7 7 3 5 6 7 4 3 4 1 2 2 4 5 6 7 8 7 7 7 7
8 7 6 5 3 5 5 6 5 4 4 3 4 6 5 5 6 6 7 7 7 7
8 8 7 6 5 4 4 4 5 6 6 4 4 3 4 2 4 6 7 5 6 6
8 8 9 8 7 4 2 4 5 7 6 5 3 5 8 6 5 4 5 6 6 6
7 7 8 8 8 4 4 3 4 6 7 7 6 3 7 9 4 5 5 6 5 5
12 9 7 7 7 10 3 3 2 5 6 7 7 5 7 5 5 5 5 6 8 9
9 10 11 8 6 5 6 6 4 5 6 5 6 8 2 4 5 5 5 5 7 8
6 6 7 8 8 5 5 6 6 7 6 7 6 5 3 5 2 3 2 4 4 9
7 7 7 7 5 5 6 7 7 7 7 7 7 5 8 5 2 1 2 3 4 5
Wind_Direction
36 32 24 1 351 351 323 240 220 215 218 209 205 214 198 207 198 189 211 226 239 258
33 34 13 355 3 0 350 328 313 206 203 202 188 198 189 172 179 169 206 254 255 253
34 23 9 360 350 348 339 329 322 325 211 190 183 165 163 165 169 201 218 223 253 260
24 21 14 3 340 332 348 344 324 290 350 259 169 191 186 210 188 207 230 231 242 252
355 5 16 2 353 345 334 341 4 2 293 278 241 230 206 218 224 246 234 253 242 258
345 346 319 336 344 352 347 314 308 286 251 231 35 301 241 207 199 220 241 235 226 232
325 315 314 289 333 327 333 349 296 286 272 296 299 250 247 247 242 231 235 220 220 229
313 308 307 298 278 294 320 334 340 333 295 275 252 255 224 331 301 246 241 208 232 236
313 316 309 305 272 260 297 339 339 330 325 312 288 216 228 242 257 304 273 241 244 235
308 313 309 315 308 281 296 325 339 335 323 310 296 264 223 242 237 253 256 283 296 292
334 317 318 338 345 309 276 262 254 298 306 317 301 335 274 254 241 213 241 247 254 256
320 317 326 318 317 324 308 303 292 264 270 276 290 317 283 168 250 234 239 235 253 254
314 309 315 321 315 301 277 263 275 283 274 265 264 214 199 197 192 293 58 311 307 286
293 298 290 287 290 301 313 300 291 286 282 277 277 196 203 227 151 122 314 287 284 296